Regional Weather Roundup
Issued by NWS Charleston, SC

Current Version | Previous Version | Graphics & Text | Print | Product List | Glossary On
Versions: 1 2 3 4 5 6 7 8 9 10 11 12 13 14 15 16 17 18 19 20 21 22 23 24 25 26 27 28 29 30 31 32 33 34 35 36 37 38 39 40 41 42 43 44 45 46 47 48 49 50
000
ASUS42 KCHS 101912
RWRCHS

REGIONAL WEATHER ROUNDUP
NATIONAL WEATHER SERVICE CHARLESTON SC
200 PM EST WED FEB 10 2016

NOTE: "FAIR" INDICATES FEW OR NO CLOUDS BELOW 12,000 FEET WITH NO
SIGNIFICANT WEATHER AND/OR OBSTRUCTIONS TO VISIBILITY.

NOT ALL STATIONS ARE QUALITY CONTROLLED BY THE NATIONAL
WEATHER SERVICE. USE DATA WITH CAUTION...ESPECIALLY
DEWPOINT OBSERVATIONS.

SCZ027-030-031-034>040-042>050-102000-
...SOUTHEAST SOUTH CAROLINA...

CITY           SKY/WX    TMP DP  RH WIND       PRES   REMARKS
N CHARLESTON   MOSUNNY   43  16  33 W16G29    29.98F
WATERFRONT PRK   N/A     39  20  46 W10       29.84F WCI  32
MOUNT PLEASANT FAIR      41  19  42 W15G21    29.99F
JOHNS ISLAND   FAIR      43  16  33 W22G29    29.99F
PINOPOLIS        N/A     39  21  48 W14       29.91F WCI  31
MONCKS CORNER  FAIR      37  12  35 W9G17     29.98F WCI  31
SUMMERVILLE    FAIR      41  19  42 W14G25    30.00F
BEAUFORT MCAS  SUNNY     44  13  28 W17G31    30.03F
BEAUFORT ARPT  FAIR      43  16  33 W20G29    30.03F HAZE
HILTON HEAD IS SUNNY     43  18  36 W12G28    30.05F
WALTERBORO     CLEAR     43  14  31 W22G32    30.01F
ALLENDALE      FAIR      39  10  30 W15G24    30.04S WCI  31

...SOUTHERN MIDLANDS AND PEE DEE...

CITY           SKY/WX    TMP DP  RH WIND       PRES   REMARKS
GEORGETOWN     NOT AVBL
KINGSTREE      NOT AVBL
ORANGEBURG     SUNNY     40  11  30 W13G29    30.00F WCI  32
BARNWELL       FAIR      39  14  35 W14G25    30.04S WCI  31
AIKEN          FAIR      36  12  38 W23G30    30.05S WCI  24
MANNING        FAIR      37  14  38 W12G20    29.99F WCI  30
COLUMBIA       MOSUNNY   40  10  29 W23G30    30.00F WCI  30
SUMTER         MOSUNNY   37  14  38 W17G28    29.96F WCI  28
FLORENCE       PTSUNNY   38  15  39 W15G22    29.95F WCI  29
MYRTLE BEACH   MOSUNNY   43  16  33 W12G22    29.97F
N MYRTLE BEACH MOSUNNY   41  18  39 W16G24    29.92F

$$

GAZ063-065-086>088-099>101-113>116-118-119-134>141-150-102000-
...SOUTHEAST GEORGIA...

CITY           SKY/WX    TMP DP  RH WIND       PRES   REMARKS
SAVANNAH ARPT  SUNNY     44  14  29 NW20G31   30.07F
HUNTER AAF     SUNNY     45  17  32 W20G36    30.04F
FORT STEWART   SUNNY     43  11  28 W22G32    30.06F
STATESBORO     SUNNY     44   2  17 W14G28    30.08S
SYLVANIA       CLEAR     42  19  40 W17G26    30.07F
CLAXTON        FAIR      42  19  39 SW22G29   30.09F

...CSRA...CENTRAL AND FAR SOUTHEAST GEORGIA...

CITY           SKY/WX    TMP DP  RH WIND       PRES   REMARKS
THOMSON        SUNNY     38  16  39 W14G23    30.11S WCI  30
AUGUSTA-BUSH   SUNNY     39  10  30 W22G28    30.05F WCI  29
AUGUSTA-DANIEL NOT AVBL
SWAINSBORO     FAIR      39  12  33 W16G24    30.10F WCI  30
VIDALIA        SUNNY     41  14  33 W9G25     30.12S
EASTMAN        FAIR      41  13  31 W14G22    30.17S
HAZLEHURST     FAIR      43  13  29 NW9G18    30.12F
ALMA           SUNNY     42  13  30 NW18G28   30.13F
WAYCROSS       SUNNY     47  17  30 NW18G26   30.13F
JESUP          FAIR      46  19  34 NW14G25   30.11F
BAXLEY         FAIR      43  14  31 W17G24    30.12F
BRUNSWICK      SUNNY     46  19  34 W17G26    30.11F
SAINT SIMONS   SUNNY     45  16  31 W12G24    30.10F

$$

SCZ027-028-034-036>038-045-046-048>050-GAZ119-141-102000-
...LAKE AND SUPPLEMENTAL COASTAL OBSERVATIONS...

STATION/POSITION TIME  TEMP    WIND        PRES    WAVE   SWELL
                       AIR SEA DIR/SP/G            HT/PER HT/PER/DIR
                 (UTC) (F)     (DEG/KT/KT) (MB)    (FT/S) (FT/S/D)
WINYAH BAY       NOT AVBL
LAKE MURRAY      1800   33     280/ 16/ 25 1015.2F
ACE BASIN NERRS  NOT AVBL
FORT PULASKI     1800   39 50  280/ 23/ 28 1018.3F
SAPELO ISLAND    1800   42     280/ 17     1019.0F

$$

ANZ835-935-AMZ111-154-330-350-352-354-370-450-454-472-102000-
...C-MAN AND BUOY OBSERVATIONS...

STATION/POSITION TIME  TEMP    WIND        PRES    WAVE   SWELL
                       AIR SEA DIR/SP/G            HT/PER HT/PER/DIR
                 (UTC) (F)     (DEG/KT/KT) (MB)    (FT/S) (FT/S/D)
BUOY 41004       1850   40 63  270/ 23/ 29 1014.9F   7/ 7
BUOY 41008       1850   42 53  270/ 17/ 25 1018.6F   3/ 4
FOLLY BEACH CMAN 1800   39     260/ 14/ 19 1016.2F
CAPERS NEARSHORE 1808   38     290/ 19/ 27 1015.3F
FRIPP NEARSHORE  1800   39     290/ 21/ 23 1016.8F


STATION/POSITION TIME  TEMP    WIND        PRES    WAVE   SWELL
                       AIR SEA DIR/SP/G            HT/PER HT/PER/DIR
                 (UTC) (F)     (DEG/KT/KT) (MB)    (FT/S) (FT/S/D)
5E ST. MARYS GA  1851      55                N/A     3/15   2/ 80/15
FRYING PAN BUOY  1800   39 60  260/ 17/ 23 1013.8F
BUOY 41025       1850   40 72  270/ 16/ 21 1011.4F   7/ 6   5/220/ 8
CAPE LOOKOUT NC  NOT AVBL
BUOY 41002       1850   55 68  270/ 27/ 35   N/A    16/11  13/270/11
BUOY 41010       1820   57 72              1019.7F
ST AUGUSTINE FL  1900   51 56  270/ 17/ 23 1020.4F


$$



USA.gov is the U.S. government's official web portal to all federal, state and local government web resources and services.